Showing default

MIDAS 7/ERS 10, 622

Orbit data source: Space-Track

MIDAS 7/ERS 10, 622 is a payload satellite owned by USAF SSD (US) in LEO that was launched on Fri, 19 Jul 1963 UTC via an ATLAS AGENA B launch vehicle from the Air Force Western Test Range (AFWTR). Payloads include a variety of satellites, spacecraft, and rockets equipped with specific instruments for various scientific and technological missions. These include communications satellites like Starlink; space stations such as the ISS; scientific satellites like the Hubble; Earth observation satellites from companies like Planet Labs, Umbra, and HawkEye 360; GPS; miniature CubeSats for education and research; and military/defense satellites.

Loading next visibility...
MIDAS 7/ERS 10 details
Identifier
622, 1963-030A
Orbit
LEO
Last TLE update1 day ago
Origin
Flag of USUSAF SSD (US)
ManufacturerLMSC
MissionDefense Early Warn
Bus & MotorMIDAS, Unknown motor
Mass~1,540 kg wet, ~840 kg dry
Launch date (UTC)
1963-07-19 (62 years ago)
Launch vehicle
ATLAS AGENA B
Launch site
Air Force Western Test Range (AFWTR)
Object type
Payload
Rocket body
Debris
Shape & HBRCyl + Cone, 8.99 m
Radar Cross Section11.475 m², Large (>1 m²)

Expand to show TLE details & history

TLE from 1 day ago
0 MIDAS 7/ERS 10
1 00622U 63030A   25042.48403319  .00000023  00000-0  10233-1 0  9992
2 00622  88.3993 238.3238 0032448 188.8138 171.2145  8.57932638417698
Epoch: 2025-02-11T11:37Z
Definitive object data (Epoch: 2025-02-11T11:37:00.467Z)
Latitude-0.00004°
Longitude-77.71634°
Altitude3,735.733 km
Speed6.268 km/s
True Right ascension15h 53m 17s
True Declination0° 00' 00"
Sunlit
Object was in daylight at TLE epoch
Visualization TLE readout
Latitude-8.11323°
Longitude102.44878°
Altitude3,672.128 km
Speed6.308 km/s
Apparent Right ascension04h 11m 21s
Apparent Declination-20° 22' 40"
Sunlit
Object is in daylight
Visualization observer readout
Local Sidereal Time16:46:49
Azimuth23.822° NE
Elevation-69.039°
Doppler factor1
Orbital elements
Apogee altitude3,731.75 km
Perigee altitude3,666.354 km
Semi-major axis10,077.189 km
Eccentricity0.0032448
Inclination88.3993°
RAAN238.3238°
Arg. of periapsis188.8138°
True anomaly171.27106°
Mean anomaly171.2145°
Eccentric anomaly171.2428°
Mean motion2.14553 °/min
BSTAR0.010233
Orbital period167.79 mins
Loading maneuver chart data...
Loading historical data...
Loading historical data...
Loading historical data...
Loading historical data...
Loading historical data...
Loading historical data...
Loading historical data...

MIDAS 7/ERS 10 Visibility forecast

Observer location: undefined°, undefined

Span
Click to sort rows by Start time (UTC) header in descending order
Start Az.
Max El. time (UTC)
Max El. Az.
Max El.
End time (UTC)
End Az.
31 mins2025-02-12 15:41:46.242Z237.674° WSW2025-02-12 15:56:46.242Z291.45° WNW25.621°2025-02-12 16:12:46.242Z349.878° N
24 mins2025-02-12 22:01:46.242Z18.679° NNE2025-02-12 22:12:46.242Z57.793° ENE19.497°2025-02-12 22:25:46.242Z103.659° ESE
36 mins2025-02-13 00:47:46.242Z0.385° NNE2025-02-13 01:04:46.242Z66.158° ENE44.865°2025-02-13 01:23:46.242Z181.426° SSW
26 mins2025-02-13 03:36:46.242Z344.582° N2025-02-13 03:48:46.242Z301.568° NW23.958°2025-02-13 04:02:46.242Z251.708° W
31 mins2025-02-13 11:16:46.242Z127.544° SE2025-02-13 11:31:46.242Z70.577° E32.592°2025-02-13 11:47:46.242Z9.525° NNE
15 mins2025-02-13 14:00:46.242Z197.506° SSW2025-02-13 14:15:46.242Z250.863° W40.964°2025-02-13 14:15:46.242Z250.863° W
|